DELTA 1 DEB, 7198

Orbit data source: Space-Track

DELTA 1 DEB, 7198 is space debris in SSO originally from a launch on Tue, 06 Nov 1973 UTC launched from the Air Force Western Test Range (AFWTR). Debris objects in space refer to the collection of defunct objects orbiting the Earth. Examples of debris include non-operational satellites, rocket bodies, and fragments generated from explosions, collisions, or faulty payload assembly.

Loading next visibility...
Identifier
7198, 1973-086FG
Orbit
SSO
Country
Flag of USUS
Related business
Manufacturer
Unknown
Mission
Spacecraft
Bus & Motor
Unknown
Mass
Unknown
Launch date (UTC)
1973-11-06 (53 years ago)
Launch vehicle
Unknown
Launch site
Air Force Western Test Range (AFWTR)
Object type
Payload
Rocket body
Debris
Shape & HBR
Unknown shape, 0.1 m
Radar Cross Section
Medium (>0.1 m² and <1 m²)

Expand to show TLE details & history
Last TLE update: 2 days ago

TLE from 2 days ago
0 DELTA 1 DEB
1 07198U 73086FG  26262.19107988  .00000469  00000-0  19122-2 0  9996
2 07198 102.3319 228.9262 0144667 337.7952  33.6756 12.89951219470841
Epoch: 2026-09-19T04:35Z
TLE epoch observation values (Epoch: 2026-09-19T04:35:09.301Z)
Latitude
12.0763°
Longitude
159.367°
Altitude
1,211.601 km
Speed
7.293 km/s
True Right ascension
15h 05m 02s
True Declination
12° 00' 37"
Sunlit
Object was in daylight at epoch
Visualization orbit readout
Latitude
Unknown
Longitude
Unknown
Altitude
Unknown
Speed
Unknown
Apparent Right ascension
Unknown
Apparent Declination
Unknown
Sunlit
N/A
Visualization observer readout
Local Sidereal Time
11:57:50
Azimuth
Unknown
Elevation
Unknown
Doppler factor
Unknown
Orbital elements
Apogee altitude
1,410.313 km
Perigee altitude
1,188.18 km
Semi-major axis
7,677.384 km
Eccentricity
0.01447
Inclination
102.3319°
RAAN
228.9262°
Arg. of periapsis
337.7952°
True anomaly
34.60881°
Mean anomaly
33.6756°
Eccentric anomaly
34.14079°
Mean motion
3.22644 °/min
Orbital period
111.58 mins
BSTAR
0.0019122
Loading maneuver chart data...
Computing Atmospheric mass density...
Loading historical data...
Loading historical data...
Loading historical data...
Loading historical data...
Loading historical data...
Loading historical data...
Loading historical data...

Documentation

Showing up to 5 results
|